Погода в Сабанге

Индонезия     5°50′22″N   95°20′20″E
темп.,
°C
ветер,
м/с
пор.,
м/с
влажн.,
%
обл.,
%
осадки,
мм/ч
давл.,
гПа
погр.,
м
2 марта, вт
вт201:00+28всв777399 0.0 1012826
04:00+27всв787496 0.0 1009719
07:00+28всв897473 0.0 1010831
10:00+28всв89720 0.0 1012991
13:00+28св89730 0.0 1011712
16:00+28св78750 0.0 1008776
19:00+28св67770 0.0 1010965
22:00+28всв567812 0.2 1012675
3 марта, ср
ср301:00+28в457717 0.4 1011601
04:00+28всв44770 0.0 1009548
07:00+28всв56770 0.0 1010762
10:00+28всв78772 0.0 1012917
13:00+28всв89792 0.0 1010710
16:00+28св910790 0.0 1007757
19:00+28св910770 0.0 1009940
22:00+28всв887782 0.0 1011935
4 марта, чт
чт401:00+28всв677970 0.0 1011763
04:00+28в678019 0.7 1009752
07:00+28в787841 0.8 1010918
10:00+28всв78781 0.0 1012879
13:00+28всв89791 0.0 1010591
16:00+28всв677810 0.1 1008567
19:00+29всв677939 0.1 1009658
22:00+29в667971 0.0 1011582
5 марта, пт
пт501:00+28вюв568186 0.0 1010503
04:00+27ююв458123 0.4 1008259
07:00+28юв337721 0.4 1010395
10:00+28в33770 0.3 1012344
13:00+28всв23730 0.4 1011454
16:00+29с117022 0.2 1008392
19:00+29с227247 0.6 1009563
22:00+28с3377100 1.9 1011430
6 марта, сб
сб601:00+27ююв1180100 7.9 1011159
04:00+28ю3377100 3.2 1009145
07:00+28вюв2372100 5.9 1010234
10:00+29всв677599 0.0 1012823
13:00+28всв677698 0.1 1011731
16:00+28всв787674 0.5 1009646
19:00+28всв567683 6.8 1010367
22:00+28ююз3374100 3.9 1012392